Lapse_Rate
3.4 2.7 2.7 2.1 1.9 1.7 2.4 2.5 2.8 2.7 2.8 3.0 3.0 3.3 3.5 3.5 3.6 3.4 3.3 3.7 3.7 3.8 3.6 3.6 3.7 3.5 3.7 3.7 3.5 3.6 3.9 3.8 4.9 4.6 3.0 3.3 3.6 3.9 4.0 3.4 3.9 4.7 4.7
3.0 2.8 2.5 2.1 2.1 2.2 1.8 1.8 2.3 2.9 2.5 2.8 2.7 3.0 3.3 3.6 3.3 3.9 3.8 4.2 4.0 4.1 4.2 3.7 3.8 4.2 3.6 3.4 3.6 3.7 4.2 3.7 4.5 4.3 3.5 3.8 3.8 3.7 3.0 3.2 4.3 4.7 3.7
3.4 3.8 2.9 2.4 1.9 2.2 2.1 1.3 1.5 2.2 2.4 2.8 2.7 3.1 3.4 3.5 3.4 3.5 3.8 4.1 4.1 4.0 4.3 4.4 4.6 4.4 4.4 4.3 4.3 4.4 4.2 4.1 3.7 3.9 4.3 3.2 3.4 3.4 3.5 3.6 3.6 3.1 3.8
4.7 4.3 3.6 2.8 2.4 2.5 2.3 1.5 1.6 1.5 2.2 2.4 2.9 3.1 3.3 3.3 3.3 3.5 3.5 3.6 3.9 4.2 3.8 4.0 4.4 4.6 4.5 4.6 4.6 4.4 4.7 4.6 4.5 4.2 4.0 3.8 3.5 3.7 3.3 3.7 4.2 3.9 3.5
4.5 4.0 3.5 3.2 3.0 2.5 2.5 1.9 1.8 1.8 2.0 2.1 2.5 3.1 3.3 3.4 3.9 3.3 3.4 3.5 3.5 3.7 3.9 3.8 3.8 3.7 2.6 3.4 5.2 4.7 4.4 4.4 4.5 4.4 4.3 4.2 4.0 4.1 4.5 4.5 4.2 4.4 3.5
4.9 5.0 4.2 3.8 3.0 2.6 2.3 2.3 1.7 1.8 2.1 1.5 1.8 2.8 3.1 4.3 2.1 1.1 2.8 3.8 3.7 3.7 3.8 3.7 4.0 2.7 2.4 1.0 0.8 1.5 3.8 4.6 4.6 4.9 4.8 4.7 4.6 4.0 4.1 4.9 4.5 4.7 4.9
5.5 5.3 4.5 3.9 3.3 2.9 2.6 2.6 2.3 1.8 1.9 1.8 1.9 1.9 2.2 2.8 0.3 0.2 0.8 4.1 4.0 3.9 3.9 3.9 3.9 4.8 2.6 4.3 1.6 0.1 0.2 0.0 1.2 5.0 5.0 5.0 4.6 4.7 4.9 4.8 4.2 4.1 4.8
3.6 6.0 5.0 3.8 4.1 3.6 3.3 2.8 2.6 2.8 2.5 1.9 2.1 2.2 2.2 2.2 -0.6 -0.9 -0.0 3.1 3.7 3.5 3.4 3.5 3.9 4.2 3.7 4.0 4.3 4.5 4.4 4.1 3.3 3.3 3.5 4.4 4.2 4.6 4.5 5.3 4.6 3.9 3.7
4.4 4.3 5.6 4.9 4.3 3.4 3.1 2.8 3.0 3.2 3.0 3.0 2.7 2.4 2.6 2.8 -1.2 -1.5 -0.7 3.1 3.6 3.4 3.0 2.7 2.8 3.4 1.6 -0.7 4.2 4.3 4.4 3.9 3.9 3.1 3.1 3.0 3.1 3.1 2.8 3.8 4.3 4.3 5.2
4.7 4.5 4.2 4.6 6.0 5.0 3.6 3.6 3.1 3.4 3.4 3.5 3.2 2.9 2.2 3.2 -0.8 -2.0 -0.9 4.1 3.6 3.5 3.2 2.3 -1.3 1.9 -1.1 -2.6 2.4 3.9 4.1 3.7 4.1 4.1 3.0 1.0 0.0 1.5 0.3 2.1 4.5 4.2 4.9
4.0 4.2 4.3 4.3 4.3 5.7 5.4 4.6 4.0 3.9 3.9 3.9 3.3 3.4 3.1 2.7 2.8 -2.5 -2.9 3.6 4.7 4.1 3.7 3.6 2.5 -3.3 -3.6 -4.1 -2.9 3.3 3.2 3.5 3.1 3.7 4.1 3.8 3.8 3.6 3.4 1.5 2.4 3.6 4.4
2.5 2.2 3.0 3.7 4.1 4.9 4.9 5.7 5.1 4.9 4.6 4.3 4.0 3.8 3.7 3.1 -0.2 -2.1 -3.2 -2.4 2.3 4.8 4.2 3.9 3.3 -2.9 -4.5 -4.9 -4.1 -2.4 -2.8 -2.2 3.4 3.8 3.7 3.7 3.5 3.3 3.7 3.7 3.0 2.7 3.5
2.3 0.8 0.9 2.2 3.5 3.5 4.3 4.3 5.4 5.3 5.5 4.1 4.4 4.0 3.5 3.8 2.7 -2.7 -3.8 -3.6 -2.4 3.2 5.1 3.7 0.5 -2.9 -3.7 -3.7 -4.4 -3.9 -4.1 0.3 2.5 3.0 3.4 3.3 3.3 3.7 3.6 3.0 2.8 3.0 3.0
2.3 1.5 0.2 0.3 1.1 2.3 3.4 4.3 4.9 5.9 5.0 4.6 3.9 3.8 3.8 4.1 3.4 2.6 0.2 -1.6 -3.1 -0.9 1.5 2.8 2.7 1.2 0.3 1.3 0.1 -1.6 -0.1 1.2 2.4 3.0 3.4 3.4 2.6 2.2 2.7 3.1 3.7 3.6 3.8
2.9 2.7 2.1 0.7 0.3 1.2 2.4 3.8 5.3 4.5 5.5 5.1 4.3 3.7 3.6 3.2 2.7 0.7 0.4 1.6 1.2 0.2 1.3 2.2 3.5 3.0 3.2 3.3 1.9 1.7 1.0 0.8 1.3 1.6 1.7 2.2 2.7 3.0 2.9 3.6 3.5 3.7 4.3
3.9 3.0 2.2 2.0 0.4 0.0 0.3 1.2 -1.6 -2.5 -4.2 -3.8 -1.5 3.4 4.1 0.4 -2.9 -4.4 -5.7 -5.1 -4.1 -3.9 1.5 3.8 3.4 3.8 3.9 3.4 3.2 2.7 1.2 0.1 1.5 1.7 1.6 2.3 2.9 3.5 3.8 3.5 3.8 4.1 4.2
2.7 2.6 2.5 2.0 2.0 0.8 0.5 0.3 0.6 0.8 -4.5 -5.1 -5.9 -5.0 -4.2 1.7 -5.4 -4.8 -5.7 -5.6 -3.9 -2.9 4.1 4.6 4.5 4.4 3.6 3.6 3.4 3.0 2.2 1.3 1.2 1.7 2.1 2.4 3.2 4.1 3.6 4.7 4.2 4.4 4.6
3.2 1.7 2.3 2.1 2.4 2.4 1.2 1.2 0.9 2.2 3.5 2.7 -4.6 -4.6 -6.8 -6.9 -7.2 -5.7 -5.2 -4.2 0.7 -2.3 3.9 4.4 5.0 4.1 3.5 3.2 2.9 2.3 1.9 1.9 1.8 1.6 2.1 2.9 3.2 4.1 4.5 4.6 4.5 4.3 4.3
3.4 3.1 2.8 2.5 2.7 2.2 1.7 1.3 0.7 0.4 2.0 3.0 1.6 -4.7 -5.7 -8.3 -7.2 -6.9 -6.2 4.2 4.5 4.0 2.4 3.7 4.1 4.5 3.3 2.8 2.8 2.8 2.8 2.8 2.6 2.5 2.3 2.6 2.7 3.3 4.3 4.7 3.7 1.2 1.5
2.4 2.9 2.9 3.2 2.2 2.3 1.8 1.6 1.1 0.9 1.8 3.3 2.7 2.4 -2.7 -4.0 -2.8 -1.9 -2.7 1.1 4.2 4.1 3.9 3.1 3.5 3.5 3.7 2.8 2.9 2.5 2.6 2.4 2.4 2.6 2.5 1.7 0.9 0.7 1.4 1.1 2.5 3.5 2.7
3.0 3.0 2.8 3.3 3.3 3.4 2.1 1.9 1.6 1.1 2.0 2.8 3.6 4.2 -2.2 1.2 1.1 0.6 1.3 0.6 2.1 3.9 4.7 3.4 2.7 2.8 2.9 2.8 2.8 2.7 2.0 1.8 1.4 0.7 0.1 -0.0 0.2 0.6 0.5 1.3 3.0 3.5 3.3
3.2 2.9 3.1 2.9 2.6 3.4 3.1 3.1 2.1 1.7 2.1 2.7 2.4 2.7 -4.7 1.4 1.4 2.3 2.6 2.6 1.8 2.0 2.6 2.6 2.0 2.2 2.1 1.9 1.5 1.4 1.0 0.5 -0.0 -0.4 -0.1 -0.0 0.4 1.3 2.8 3.3 3.0 2.7 3.1
3.8 2.8 3.8 3.7 3.1 3.1 3.1 3.4 4.3 4.5 3.0 5.1 5.4 2.0 -1.5 0.7 0.1 -2.1 -3.7 -4.4 -5.1 -5.6 -5.5 -4.2 -3.7 -4.5 -5.2 -4.8 -3.1 -0.4 -0.4 -0.8 -0.1 0.4 1.7 2.2 2.4 2.2 2.7 3.6 3.2 2.9 3.3
4.2 4.4 3.4 4.0 3.7 2.8 3.3 4.0 4.0 3.5 4.1 4.7 4.0 2.6 2.0 -1.4 -3.7 -5.2 -6.6 -6.5 -6.4 -6.8 -7.2 -7.4 -7.4 -7.5 -7.1 -6.8 -6.7 -6.5 -6.1 -3.6 -1.9 -1.1 -0.4 -0.6 1.0 0.5 2.7 2.6 2.8 3.5 4.1
2.8 2.1 2.1 1.7 1.3 0.2 0.2 -0.0 -0.0 -0.2 -0.1 0.9 -0.3 -1.7 -3.3 -4.9 -6.0 -6.6 -6.5 -6.8 -7.3 -7.6 -7.6 -7.6 -7.8 -7.6 -6.0 -5.5 -6.1 -6.8 -8.1 -7.0 -3.9 -1.9 -0.1 1.2 0.5 1.5 2.3 2.5 2.8 3.3 4.0
3.2 2.7 1.8 0.7 0.0 0.2 -0.8 -1.5 -1.3 -1.4 -1.8 -2.4 -3.4 -4.6 -5.2 -6.0 -6.3 -7.1 -7.3 -7.5 -7.4 -6.9 -6.6 -6.7 -6.9 -6.4 -6.0 -6.1 -6.9 -7.6 -7.5 -5.8 -3.8 -2.4 -2.1 -1.8 -2.3 -0.9 1.4 1.9 2.2 2.2 2.9
Wind_Speed
12 12 10 9 9 7 9 9 8 5 6 6 6 6 7 7 6 5 5 5 5 4 4 4 4 3 2 2 1 1 1 2 1 2 2 2 3 6 11 12 10 8 12
13 12 12 11 10 10 10 10 9 9 6 7 7 7 7 7 7 8 7 6 6 6 6 5 6 3 4 3 3 4 2 3 2 3 2 2 3 4 7 7 7 11 11
10 11 10 10 11 12 11 9 10 9 9 7 7 7 8 8 8 9 9 8 7 7 6 6 7 5 5 4 4 4 4 3 3 3 3 1 2 3 4 4 4 8 10
10 12 12 12 12 12 12 11 11 11 10 10 10 9 8 8 8 8 9 9 8 7 7 7 7 7 7 6 5 6 5 4 4 4 4 4 3 3 3 3 6 3 7
14 15 16 14 12 11 10 10 12 10 12 11 10 10 9 8 8 9 9 10 10 9 8 8 8 8 10 8 5 5 5 5 4 5 5 3 4 3 5 2 4 7 5
14 16 14 13 13 13 12 11 10 12 12 10 11 12 11 9 12 14 11 9 10 9 9 8 8 8 9 11 11 11 8 7 7 4 5 6 7 5 3 4 4 4 4
8 13 13 14 13 13 13 11 12 12 11 12 12 12 13 13 15 16 16 9 9 10 10 9 8 8 9 9 10 12 11 12 13 8 9 8 8 5 3 5 4 3 4
3 8 10 11 12 12 11 13 13 12 12 12 13 13 13 12 15 18 18 13 11 11 11 11 11 10 10 10 9 9 10 9 9 8 10 11 10 9 7 6 5 5 5
4 4 8 11 13 13 13 14 13 11 11 12 11 12 13 14 17 18 14 12 12 13 11 12 12 11 12 15 10 10 10 11 13 21 22 22 21 20 11 3 6 5 5
7 6 7 6 11 13 15 14 12 10 12 10 12 12 15 15 15 19 16 11 13 11 11 10 15 15 13 14 12 10 11 13 8 9 7 10 17 16 17 12 7 7 5
7 5 6 5 7 10 11 10 10 11 10 11 11 11 13 14 15 19 20 14 12 11 11 10 10 17 17 16 17 11 13 11 9 8 8 8 7 7 6 11 12 7 6
7 5 6 6 6 6 6 11 11 11 11 12 11 10 10 13 16 16 20 23 17 13 13 11 11 14 16 17 12 17 15 7 7 8 7 9 8 8 9 8 14 16 16
8 5 5 7 7 7 8 7 9 12 12 12 11 11 11 10 11 18 19 21 23 14 13 13 13 15 16 14 16 15 14 7 9 9 10 10 9 8 7 5 11 13 14
7 8 4 4 7 8 7 7 9 11 11 12 11 12 11 10 10 10 11 10 19 15 18 11 10 9 11 10 7 9 8 8 9 9 9 8 5 5 6 6 6 6 6
7 8 7 5 6 8 7 7 10 13 13 12 13 12 11 12 12 13 12 11 11 13 9 10 11 9 10 9 8 9 7 7 8 8 8 8 7 6 7 7 7 6 8
8 7 6 6 5 6 7 8 12 14 11 15 14 14 11 13 14 16 16 13 14 9 6 11 10 10 11 13 13 11 9 10 11 9 9 8 8 8 7 6 7 8 9
6 7 7 7 7 7 6 6 7 8 12 12 13 15 15 11 15 18 16 15 16 12 10 10 11 10 10 12 12 11 11 10 10 9 10 9 9 9 6 7 8 9 9
6 8 8 8 8 8 6 8 5 8 10 8 12 14 18 16 12 16 14 11 3 5 10 10 10 10 10 10 10 10 9 8 9 9 9 10 10 9 7 8 8 10 9
8 7 7 9 9 10 8 8 8 10 10 10 4 3 9 9 13 8 12 9 11 10 10 11 11 10 9 9 9 10 10 9 9 8 10 9 9 9 9 8 5 4 5
8 16 14 10 9 9 8 8 9 10 10 9 8 9 4 5 6 8 8 10 11 11 10 10 11 10 10 9 9 9 8 8 9 9 8 6 5 5 5 5 5 7 7
7 10 15 10 10 10 10 9 9 9 11 9 10 9 14 9 7 7 9 11 12 12 12 10 9 10 9 9 8 9 9 8 7 6 5 6 6 5 4 5 5 5 5
10 8 9 11 10 11 10 10 9 10 11 12 11 7 15 10 4 6 7 8 8 7 7 8 7 7 8 8 8 8 7 6 5 6 6 6 5 4 5 5 6 5 5
8 10 11 11 13 15 12 12 10 12 11 12 10 5 3 4 3 4 5 5 5 5 5 5 4 4 4 4 2 5 9 8 7 6 5 4 5 6 7 7 6 5 5
7 8 8 7 6 7 9 9 10 11 9 10 7 5 5 6 7 7 7 7 7 7 7 8 7 10 7 7 6 10 10 8 3 2 9 10 5 6 4 5 5 5 4
3 3 2 2 1 2 3 3 3 1 1 2 4 6 7 8 7 8 8 8 8 8 10 9 9 13 12 12 9 14 17 25 15 12 6 4 11 6 3 4 5 5 5
3 3 3 4 4 4 4 5 5 4 3 6 8 8 8 9 8 8 8 9 10 10 11 10 14 17 18 16 18 22 22 24 22 26 17 9 10 9 5 6 8 4 5
Wind_Direction
203 196 195 196 194 193 192 189 192 181 193 194 189 194 199 194 196 196 199 195 205 215 228 234 242 214 225 231 227 227 193 168 260 291 267 300 299 325 330 341 348 352 336
198 198 198 194 192 199 198 197 188 199 181 195 186 196 198 201 194 203 208 198 205 220 226 221 241 232 233 222 228 237 243 204 215 270 267 286 270 312 311 318 334 333 331
197 202 202 197 189 202 210 201 192 195 198 190 187 199 201 203 197 205 208 210 209 211 220 222 237 220 238 225 228 244 244 233 220 242 286 275 282 308 316 312 313 317 333
195 204 208 204 203 206 204 198 203 198 200 200 199 203 201 199 201 204 207 209 215 221 220 219 232 226 231 237 236 234 245 246 240 252 273 279 269 283 291 299 320 318 326
202 202 208 208 207 206 207 201 201 204 209 207 196 203 202 196 205 203 206 214 213 217 227 231 230 227 221 228 234 238 229 246 255 261 272 275 279 289 298 308 295 319 311
213 213 215 210 205 204 204 205 196 204 212 206 208 207 205 209 198 197 198 210 213 212 220 229 236 230 232 232 232 235 227 236 247 250 264 270 280 278 273 290 298 322 321
235 219 210 212 211 211 209 204 208 204 200 209 213 209 212 213 199 201 199 211 212 217 216 220 227 233 225 240 235 232 238 235 235 247 257 255 270 266 271 283 274 262 274
288 227 217 210 219 213 208 210 215 211 205 205 212 212 213 218 202 206 204 212 216 216 216 219 222 226 218 222 237 249 248 245 234 231 231 249 252 259 235 269 282 274 276
346 288 238 214 221 218 216 215 216 213 212 210 208 207 214 224 203 210 201 217 224 227 217 218 218 227 221 208 225 243 253 257 249 245 241 242 245 250 245 249 263 268 281
327 299 279 252 228 220 223 220 216 215 217 214 212 210 213 224 206 206 201 221 228 231 226 218 211 222 212 202 213 231 246 255 247 252 247 254 251 255 246 222 247 244 254
305 299 291 285 267 242 222 216 213 212 220 219 220 217 219 215 221 200 197 212 225 228 231 228 222 210 220 209 208 226 233 246 246 244 253 255 255 250 237 218 225 219 230
275 285 303 283 275 267 245 216 210 203 207 216 220 226 224 224 215 206 201 203 217 225 228 228 231 205 210 218 207 229 239 235 252 256 259 261 257 253 252 241 225 220 226
283 272 254 284 291 264 250 238 222 211 216 219 220 224 226 223 223 208 201 205 214 221 230 228 216 204 213 221 219 219 221 229 241 245 250 255 248 254 257 242 240 238 233
260 280 275 286 281 280 273 240 232 231 220 220 218 223 222 219 219 210 210 211 222 220 231 232 227 208 213 226 219 221 223 218 222 232 242 250 252 236 240 232 247 228 227
242 255 260 247 254 273 269 270 241 233 230 222 222 217 210 217 216 203 197 207 211 220 213 230 233 225 232 237 236 235 215 206 217 227 232 237 241 243 243 235 235 221 220
241 253 251 257 262 259 271 276 238 237 264 249 224 215 219 216 191 199 201 202 208 162 197 224 223 226 231 236 240 236 223 215 223 221 222 225 230 227 233 226 225 225 229
246 253 263 257 260 257 259 264 286 280 253 242 238 241 224 204 190 201 202 200 210 166 218 220 223 219 222 231 235 233 231 224 221 221 223 222 221 223 205 221 225 231 236
268 247 260 264 261 260 256 265 251 268 278 253 225 218 224 219 197 197 193 130 178 222 226 228 224 218 219 222 228 230 231 224 216 218 221 225 218 211 210 221 224 231 238
267 259 253 259 257 260 260 264 266 264 264 271 235 221 227 202 202 188 171 205 215 218 217 225 228 230 215 217 225 226 225 223 220 221 226 223 221 213 224 222 210 206 227
273 261 248 252 258 255 251 255 262 264 263 254 246 239 146 136 186 193 194 210 225 225 218 219 223 223 222 211 218 223 222 221 218 216 219 208 189 188 188 180 190 211 201
268 267 263 254 239 247 253 252 256 261 265 265 254 230 191 203 203 188 201 215 222 229 231 218 214 218 224 216 216 222 220 218 205 189 167 162 168 176 184 187 181 203 180
268 263 266 264 263 253 244 249 252 253 261 266 264 224 182 214 173 216 212 218 219 226 222 213 203 204 208 206 201 203 198 182 183 159 151 157 165 184 212 203 189 182 165
263 268 258 256 252 254 253 247 244 247 255 256 251 227 183 199 139 107 97 78 65 49 30 43 60 69 28 19 32 177 170 166 166 158 159 176 200 169 179 187 167 153 161
263 256 261 288 263 264 259 254 251 253 256 260 233 195 176 120 106 98 91 88 81 72 65 65 59 58 46 43 39 33 28 5 16 162 160 142 164 134 144 146 153 153 148
282 283 283 308 329 322 319 326 294 270 92 116 99 101 101 97 95 100 101 96 89 83 80 79 71 69 54 51 61 72 63 62 62 59 32 93 114 88 130 137 135 127 133
31 55 53 44 36 29 40 30 10 356 72 90 88 83 92 91 91 92 95 99 106 99 93 90 86 78 74 67 68 66 62 59 60 64 69 59 60 69 30 61 68 83 104